Regional Weather Roundup
Issued by NWS

Home | Current Version | Previous Version | Graphics & Text | Print | Product List | Glossary Off
Versions: 1 2 3 4 5 6 7 8 9 10 11 12 13 14 15 16 17 18 19 20 21 22 23 24 25 26 27 28 29 30 31 32 33 34 35 36 37 38 39 40 41 42 43 44 45 46 47 48 49 50

000
ASUS43 KLMK 170110
RWRKY
KENTUCKY REGIONAL WEATHER ROUNDUP
NATIONAL WEATHER SERVICE LOUISVILLE KY
900 PM EDT WED APR 16 2014

NOTE "FAIR" INDICATES FEW OR NO CLOUDS BELOW 12,000 FEET
WITH NO SIGNIFICANT WEATHER AND/OR OBSTRUCTIONS TO VISIBILITY.

KYZ001>023-026-027-061>063-070>075-170200-
WESTERN AND SOUTH CENTRAL KENTUCKY

CITY           SKY/WX    TMP DP  RH WIND       PRES   REMARKS
PADUCAH        MOCLDY    54  28  36 CALM      30.14R
HENDERSON      MOCLDY    52  27  37 SE5       30.17R
OWENSBORO      MOCLDY    51  27  39 SE3       30.19R
HOPKINSVILLE   MOCLDY    52  28  40 E6        30.16S
BOWLING GREEN  PTCLDY    50  28  42 E3        30.19R
GLASGOW        MOCLDY    49  29  45 E3        30.19R
$$

KYZ024-025-028>034-038-045-046-053-170200-
NORTH CENTRAL KENTUCKY

CITY           SKY/WX    TMP DP  RH WIND       PRES   REMARKS
LOUISVILLE/SDF MOCLDY    51  23  33 E7        30.21S
LOUISVILLE/LOU PTCLDY    53  24  32 E6        30.22S
FORT KNOX      PTCLDY    48  25  41 E6        30.19S
$$

KYZ035>037-039>044-047>052-055>060-089>105-170200-
NORTHEAST KENTUCKY

CITY           SKY/WX    TMP DP  RH WIND       PRES   REMARKS
LEXINGTON      PTCLDY    48  22  35 E9        30.23S
COVINGTON      MOCLDY    45  21  38 E6        30.25S
FRANKFORT      MOCLDY    44  25  47 E7        30.22S
$$

KYZ054-064>069-076>088-106>120-170200-
SOUTHEAST KENTUCKY

CITY           SKY/WX    TMP DP  RH WIND       PRES   REMARKS
JACKSON        PTCLDY    48  19  31 NE5       30.24S
LONDON         PTCLDY    52  22  30 E3        30.22R
SOMERSET       MOCLDY    50  21  32 CALM      30.22S
MIDDLESBORO    CLEAR     48  32  54 CALM      30.23R
MONTICELLO     PTCLDY    44  30  58 CALM      30.22R
$$




USA.gov is the U.S. government's official web portal to all federal, state and local government web resources and services.